Location: Betzi
(47.2343°N, 9.5260°E)
Time: 23:12:18
(UTC+00:00)

Cosmos 1455 - Pass Details

Date: 27 May 2022
Orbit: 492 x 515 km, 82.5° (Epoch: 26 June)

Event Time Altitude Azimuth Distance (km) Brightness Sun altitude
Rises 00:26:03 0° 1° (N) 2,586 7.2 -19.9°
Reaches altitude 10° 00:28:26 10° 15° (NNE) 1,697 6.0 -19.7°
Maximum altitude 00:31:34 25° 72° (ENE) 1,019 4.0 -19.6°
Enters shadow 00:33:50 15° 121° (ESE) 1,411 4.3 -19.5°
